Wind_Speed
25 25 24 24 24 24 22 21 19 18 18 18 18 18 18 18 17 17 16 16 17 16 16 15 15 14 14 13 13 12 12 11 10 10 9 9 8 8 8 8 8 8 8 8 8 8 8 8 8
27 27 26 26 26 25 23 22 22 21 20 20 20 20 19 19 19 19 18 18 18 18 18 18 17 16 15 15 15 14 14 13 12 12 11 11 10 10 9 9 9 8 8 9 9 9 9 9 9
28 28 28 28 27 26 25 24 24 24 23 22 22 22 21 21 21 21 20 19 19 19 20 20 19 18 17 17 17 16 15 15 14 14 13 12 12 11 11 10 11 10 10 10 10 10 10 10 10
29 30 30 30 29 28 27 27 27 26 25 25 24 24 23 23 23 22 22 21 21 21 21 21 21 20 19 18 18 17 17 17 16 16 15 14 14 13 13 12 12 12 12 12 11 11 11 11 11
29 30 30 30 29 29 29 29 29 28 27 27 26 26 26 25 25 25 24 24 23 23 22 22 22 22 21 20 19 19 18 18 18 18 17 16 16 16 15 15 14 14 14 13 13 13 13 13 13
30 30 30 29 28 29 30 30 30 30 29 29 29 28 27 27 27 27 26 25 25 24 24 24 24 24 23 22 21 21 20 20 19 19 19 19 18 18 18 18 17 16 16 15 15 15 15 15 14
30 30 30 29 28 29 29 30 31 31 30 30 30 29 29 29 29 28 28 27 27 26 26 25 25 25 25 24 23 23 22 22 22 21 21 21 21 20 20 20 20 19 19 18 17 16 16 17 17
30 31 30 30 29 29 29 30 30 31 31 31 31 31 30 30 30 29 29 29 28 28 27 27 26 27 27 26 26 25 25 25 24 24 23 23 23 23 23 22 22 22 21 20 19 19 19 19 19
31 31 30 30 30 30 30 31 31 31 31 31 32 32 31 31 31 30 30 30 29 29 29 29 28 28 29 28 28 28 27 27 27 26 25 25 25 24 24 25 24 24 24 23 22 22 21 21 21
32 31 30 30 30 30 30 31 32 32 32 33 33 32 32 31 31 31 31 31 31 31 31 31 31 30 30 30 31 30 29 29 29 28 28 27 27 26 27 27 26 26 26 25 25 24 24 23 23
33 32 30 30 30 30 31 31 32 33 33 33 34 34 33 32 32 32 32 32 32 32 32 31 32 31 32 32 32 32 31 31 31 30 30 30 29 29 29 28 28 29 28 28 27 27 26 26 25
32 32 32 31 31 31 32 32 33 33 33 33 34 35 35 34 33 34 34 34 33 34 34 33 33 33 33 34 33 33 33 34 33 33 32 32 32 31 31 31 30 30 30 30 29 29 28 28 27
33 32 33 33 33 32 32 33 33 33 34 34 34 34 36 35 35 35 35 35 35 35 35 34 35 35 35 35 35 35 35 35 35 34 35 34 34 33 33 32 32 33 32 32 32 31 31 30 29
32 32 33 33 33 33 33 33 34 33 34 34 34 35 36 36 36 36 36 36 37 36 35 36 36 36 36 36 36 36 37 37 37 36 36 36 36 35 35 34 35 34 34 34 34 34 33 32 31
31 32 33 33 33 33 34 34 33 34 34 34 34 34 35 36 37 37 36 37 37 37 37 37 38 38 38 38 38 38 38 38 38 37 37 38 38 37 37 36 36 36 36 36 36 36 36 35 34
31 32 33 32 33 33 35 33 33 35 35 34 34 34 35 36 37 38 37 37 38 37 38 38 39 40 40 40 40 40 41 41 40 40 39 39 39 39 39 38 38 38 38 38 38 38 38 37 37
31 32 32 32 33 33 34 33 33 34 35 34 34 34 35 36 36 37 39 38 37 38 38 39 40 41 42 42 41 42 42 42 42 42 42 41 41 41 41 41 40 40 40 40 40 40 40 40 39
30 31 32 32 32 33 34 33 34 34 35 35 35 35 35 36 37 38 38 39 39 39 39 40 41 41 42 43 42 42 42 43 43 43 43 43 43 43 43 43 43 42 42 42 42 42 42 42 41
30 31 31 31 32 33 33 33 34 34 35 35 35 35 35 36 38 38 39 39 40 40 40 41 42 43 43 43 43 44 44 45 45 45 45 45 44 45 45 46 46 45 44 44 44 43 44 43 43
30 31 31 32 32 32 32 32 33 34 35 35 34 35 35 36 38 38 38 38 40 41 42 42 43 44 45 44 44 45 45 45 46 46 46 46 45 46 46 46 46 47 47 46 46 45 45 45 45
30 31 31 32 32 33 33 33 32 33 35 35 35 35 36 36 38 39 38 39 40 41 42 43 43 44 45 45 44 44 45 44 45 45 45 45 45 46 46 46 47 46 46 47 47 47 47 46 47
29 30 31 32 32 33 33 35 32 33 34 34 35 35 36 37 38 39 39 39 40 41 42 42 44 44 45 44 44 43 44 44 45 46 46 46 46 46 45 46 47 47 47 47 47 48 48 48 48
30 30 31 31 33 34 33 35 32 32 33 33 34 34 35 36 38 38 38 38 40 41 42 42 42 43 45 45 46 45 44 44 45 46 46 47 47 46 46 46 47 48 48 47 47 47 48 49 49
30 30 31 32 33 34 33 35 33 32 32 32 33 33 33 35 36 37 37 38 39 40 40 41 41 42 43 44 45 46 44 44 45 45 46 46 46 46 47 47 48 48 48 48 48 47 47 48 50
29 29 30 32 32 33 33 34 33 32 31 32 32 32 32 33 34 34 36 37 38 38 38 39 39 40 41 42 43 44 44 44 44 44 44 44 45 45 46 47 48 48 49 49 49 48 48 47 48
29 29 29 31 32 32 32 33 32 32 32 32 31 32 32 33 33 34 35 35 36 37 37 37 38 38 40 42 42 43 44 43 44 45 45 45 46 46 46 47 48 48 49 50 50 50 49 49 49
30 29 29 31 33 33 33 33 32 31 31 31 31 32 32 32 32 33 33 34 34 35 37 38 38 38 39 41 42 43 44 45 45 46 46 46 47 46 47 47 48 48 48 49 50 50 49 49 50
30 29 30 31 32 33 33 32 31 31 31 31 31 32 32 32 32 32 32 33 34 35 37 38 38 38 39 40 42 43 45 46 46 47 47 47 47 47 47 47 47 48 49 48 49 49 48 48 49
30 30 31 32 32 32 32 30 30 30 30 30 31 31 31 31 31 31 31 32 34 34 35 36 38 39 40 41 42 42 43 45 46 47 47 47 47 48 48 48 48 49 49 49 49 49 48 48 48
31 31 31 31 32 32 33 31 30 30 30 30 30 30 30 30 31 31 31 31 32 33 34 36 38 39 41 42 42 43 43 44 46 46 47 47 47 47 48 48 48 49 49 49 49 49 49 48 48
Wind_Direction
242 243 244 244 245 247 249 250 249 249 249 250 252 255 257 258 259 259 258 256 255 254 255 255 254 255 256 257 259 260 259 259 262 263 266 268 271 276 278 279 282 287 292 294 294 295 295 296 298
243 243 244 244 245 247 248 250 251 251 251 252 253 256 257 259 261 261 259 257 256 255 255 254 255 254 257 258 258 259 259 259 260 262 263 265 267 271 271 271 276 281 285 288 289 290 292 292 293
244 244 244 245 246 247 248 249 251 253 254 254 255 256 258 260 261 260 259 258 256 256 255 254 254 253 255 257 257 259 257 258 260 261 263 264 264 266 267 269 272 275 279 282 285 288 289 291 291
245 246 246 247 247 247 249 250 251 253 255 255 256 257 259 261 261 260 259 258 257 257 255 253 252 253 253 255 255 257 257 259 259 260 262 264 264 264 264 266 269 271 274 278 281 284 286 287 288
245 247 248 249 248 249 250 251 252 254 257 257 257 258 260 261 260 259 259 258 257 256 255 252 251 251 252 254 254 255 256 258 260 261 261 262 262 262 262 263 265 267 270 274 276 279 281 284 286
247 247 249 250 249 250 251 251 252 254 257 259 259 260 260 260 258 257 257 258 257 256 255 253 251 250 250 253 254 255 256 256 259 261 261 262 262 262 261 263 264 266 269 271 273 275 277 279 282
248 249 250 250 249 251 252 253 254 255 257 259 260 260 259 258 257 255 256 257 256 254 253 252 251 250 249 251 254 256 257 257 258 261 262 262 262 262 261 262 263 265 267 268 271 274 276 278 279
250 250 250 250 251 252 253 254 255 256 257 258 259 260 258 256 255 255 255 256 256 254 252 252 251 251 250 251 254 255 257 258 260 260 261 262 262 262 262 262 263 264 265 266 269 271 274 277 278
251 252 252 252 253 253 253 253 254 255 257 258 260 260 257 255 254 254 254 254 255 255 253 253 252 252 252 253 255 256 257 259 261 262 262 261 262 262 263 263 263 263 264 265 267 269 272 274 276
251 253 253 253 253 253 253 254 255 255 256 258 259 259 257 255 253 253 253 253 254 253 254 254 253 253 253 254 255 256 258 260 261 263 263 262 262 262 262 262 263 263 263 264 265 268 271 272 274
251 252 252 253 254 255 255 255 256 255 255 257 258 259 255 253 253 252 253 253 254 254 254 254 253 253 254 255 256 257 259 259 260 262 262 261 261 261 262 262 262 263 264 264 265 266 268 270 272
252 251 251 253 255 256 256 256 256 255 255 256 257 257 255 254 255 255 254 254 255 255 254 254 253 253 254 255 256 257 260 260 260 261 261 261 261 261 263 264 263 263 263 264 264 265 267 269 271
253 252 252 253 254 255 255 255 256 256 256 256 257 257 255 256 256 256 255 255 255 255 254 254 253 252 254 255 256 256 258 260 259 261 260 260 260 261 262 263 264 264 264 264 264 264 266 268 270
254 254 254 255 255 256 256 256 257 256 256 256 257 257 256 256 257 257 256 257 256 256 256 255 255 254 255 256 257 258 258 258 258 260 260 260 260 261 262 263 264 264 264 264 264 264 266 266 268
254 255 255 257 257 257 257 256 256 256 256 256 257 257 257 257 257 258 258 258 258 258 257 255 254 255 256 257 257 259 259 259 258 259 260 261 261 262 263 264 264 265 265 265 264 264 265 266 267
255 256 257 257 258 258 258 257 257 256 256 257 258 258 258 258 258 258 259 260 259 258 258 257 256 256 257 257 257 258 259 259 258 259 260 260 261 262 263 264 265 266 266 266 265 264 265 266 266
254 257 257 258 259 259 259 258 256 257 256 257 258 259 258 258 259 259 259 259 259 259 259 258 258 258 258 259 258 258 259 258 258 259 260 261 261 262 263 264 265 266 266 267 266 265 265 266 266
256 258 258 259 259 260 260 259 257 257 257 258 260 261 260 259 260 259 259 259 259 260 261 260 260 259 259 258 258 258 259 259 260 260 261 262 262 262 262 263 264 265 266 266 266 266 266 266 266
258 259 259 259 260 261 260 260 259 259 259 260 261 262 263 261 261 261 261 261 261 261 262 262 260 259 258 257 257 259 259 259 259 260 260 261 262 262 263 263 264 265 266 267 266 266 266 267 267
260 261 261 262 262 263 263 262 260 261 262 263 263 264 265 263 262 262 262 263 262 262 262 262 261 259 258 258 258 259 259 259 258 259 260 260 261 263 264 265 265 265 265 267 267 266 266 267 267
262 262 263 264 263 264 265 264 262 262 264 265 266 266 267 265 264 263 263 263 263 263 264 263 262 261 260 260 259 259 259 258 258 258 259 261 262 263 264 265 265 266 267 267 268 267 267 266 267
262 264 265 265 265 266 267 267 263 264 265 267 268 268 268 267 265 265 265 265 265 265 265 264 262 261 261 260 260 260 259 259 259 258 259 260 262 263 264 266 267 267 267 268 267 266 266 266 266
262 264 265 266 268 268 268 269 266 266 267 268 269 270 271 270 269 267 265 265 265 265 264 263 262 261 261 260 260 260 260 259 259 259 260 261 261 262 264 265 267 267 267 267 268 268 267 266 266
263 265 267 269 270 270 270 271 270 269 270 270 271 272 272 271 271 269 267 265 264 264 263 263 263 263 262 261 260 260 261 261 259 260 261 262 262 263 264 266 267 266 267 267 268 268 268 268 266
265 268 270 272 271 272 271 272 272 273 272 272 272 272 272 272 272 270 268 265 264 262 263 263 263 263 263 262 261 260 261 261 261 261 262 263 264 265 266 267 266 267 268 268 267 267 268 268 268
266 269 272 275 276 275 273 273 274 275 275 274 273 273 274 273 271 270 269 266 264 263 263 264 264 264 264 263 262 262 262 262 262 263 263 263 264 266 267 267 267 268 268 268 268 268 268 267 269
267 269 272 275 276 276 274 274 275 277 277 276 276 276 276 276 273 271 269 267 264 264 264 264 265 266 265 264 263 263 264 264 264 264 264 264 265 266 266 267 267 268 268 268 268 268 268 269 270
267 269 272 275 277 277 276 276 278 277 278 280 279 278 277 277 274 272 270 268 266 266 266 267 267 267 267 266 265 265 265 264 264 265 265 266 266 266 267 267 268 268 268 268 268 268 269 269 270
266 268 271 273 275 276 278 279 279 280 280 280 280 279 278 277 273 271 270 270 270 268 267 268 269 268 268 268 267 267 266 264 264 265 266 266 266 266 267 267 268 269 270 269 269 268 268 269 271
267 268 270 272 273 274 276 278 279 279 281 281 281 280 278 276 275 273 272 271 271 272 272 272 270 270 270 269 268 268 267 267 267 267 268 267 267 268 268 268 269 270 270 271 270 270 269 270 271
Height
5822 5824 5825 5827 5829 5830 5831 5833 5835 5836 5837 5838 5838 5839 5840 5841 5843 5846 5845 5844 5845 5845 5846 5847 5847 5848 5849 5850 5851 5852 5853 5853 5854 5854 5855 5855 5855 5856 5856 5857 5857 5857 5857 5857 5858 5858 5857 5857 5857
5818 5820 5822 5823 5824 5825 5828 5829 5831 5832 5833 5834 5834 5835 5836 5837 5838 5839 5839 5840 5841 5842 5842 5843 5844 5845 5846 5847 5848 5849 5850 5851 5851 5852 5853 5853 5853 5854 5855 5855 5855 5855 5856 5856 5856 5856 5856 5856 5855
5813 5814 5817 5818 5819 5821 5823 5825 5826 5827 5829 5830 5830 5831 5832 5833 5833 5834 5835 5836 5837 5837 5838 5839 5840 5842 5843 5844 5845 5846 5847 5848 5849 5849 5850 5851 5851 5851 5852 5853 5853 5853 5853 5854 5854 5854 5854 5854 5853
5808 5809 5811 5813 5815 5817 5818 5820 5821 5822 5824 5825 5826 5827 5827 5828 5829 5829 5830 5831 5832 5833 5834 5835 5836 5837 5839 5840 5842 5843 5844 5845 5846 5846 5847 5848 5848 5849 5849 5850 5850 5851 5851 5851 5851 5851 5851 5851 5851
5802 5804 5805 5807 5810 5812 5813 5815 5816 5817 5818 5820 5821 5821 5822 5823 5823 5824 5825 5826 5827 5828 5829 5830 5832 5833 5835 5836 5838 5839 5840 5841 5842 5843 5844 5844 5845 5845 5846 5847 5847 5847 5848 5848 5848 5848 5848 5848 5849
5796 5798 5800 5802 5805 5806 5808 5809 5810 5811 5812 5814 5815 5816 5816 5817 5817 5818 5819 5820 5822 5823 5824 5825 5827 5828 5830 5832 5834 5835 5836 5837 5838 5839 5840 5840 5841 5842 5842 5843 5844 5844 5844 5845 5845 5845 5845 5845 5845
5791 5792 5794 5797 5799 5800 5802 5802 5804 5805 5806 5807 5808 5809 5810 5810 5811 5812 5813 5815 5816 5817 5819 5820 5822 5824 5826 5827 5829 5831 5832 5833 5833 5834 5835 5836 5837 5838 5838 5839 5840 5840 5840 5841 5841 5842 5842 5842 5842
5784 5786 5788 5790 5792 5794 5796 5796 5798 5799 5800 5801 5801 5802 5803 5804 5805 5806 5807 5808 5810 5811 5813 5815 5816 5819 5821 5822 5824 5825 5826 5828 5828 5829 5830 5831 5832 5833 5834 5834 5835 5836 5836 5836 5837 5837 5838 5837 5837
5778 5781 5782 5785 5786 5788 5789 5789 5791 5792 5793 5794 5794 5795 5797 5798 5799 5800 5801 5803 5804 5806 5807 5809 5811 5813 5815 5817 5818 5819 5821 5822 5823 5824 5825 5826 5827 5827 5828 5829 5829 5830 5831 5832 5832 5833 5833 5833 5833
5771 5774 5777 5778 5779 5781 5781 5782 5784 5785 5786 5787 5787 5788 5789 5791 5792 5794 5795 5797 5798 5800 5802 5803 5805 5807 5809 5810 5812 5813 5815 5816 5817 5818 5819 5820 5821 5821 5822 5823 5824 5825 5825 5826 5827 5827 5828 5828 5828
5765 5767 5770 5771 5772 5773 5774 5775 5776 5777 5779 5780 5781 5781 5782 5784 5785 5787 5789 5791 5792 5794 5795 5797 5798 5800 5802 5804 5805 5807 5808 5809 5811 5811 5812 5813 5814 5815 5816 5817 5818 5818 5819 5820 5821 5821 5822 5822 5822
5758 5760 5762 5764 5765 5766 5767 5768 5769 5770 5772 5773 5773 5774 5775 5777 5779 5781 5782 5784 5785 5787 5789 5790 5792 5794 5795 5797 5798 5800 5801 5802 5803 5804 5805 5806 5807 5808 5809 5810 5811 5812 5812 5813 5814 5815 5815 5816 5816
5751 5753 5754 5756 5757 5758 5759 5760 5762 5763 5764 5765 5766 5767 5768 5770 5772 5774 5775 5777 5778 5780 5782 5783 5785 5786 5788 5789 5791 5792 5793 5795 5796 5797 5798 5799 5800 5801 5801 5802 5803 5804 5805 5806 5807 5807 5808 5809 5809
5744 5746 5747 5748 5749 5751 5752 5753 5755 5757 5757 5757 5759 5760 5761 5763 5765 5766 5768 5770 5771 5772 5774 5775 5777 5778 5780 5781 5783 5784 5785 5786 5787 5788 5789 5790 5792 5793 5794 5795 5796 5797 5797 5798 5799 5800 5800 5801 5801
5737 5739 5740 5741 5742 5743 5745 5747 5748 5748 5748 5750 5751 5752 5754 5755 5756 5758 5760 5761 5762 5763 5765 5766 5768 5769 5771 5773 5774 5775 5777 5778 5779 5779 5781 5782 5783 5785 5786 5787 5787 5788 5789 5790 5791 5791 5792 5793 5793
5730 5732 5733 5735 5735 5736 5738 5740 5740 5740 5741 5742 5743 5745 5746 5747 5748 5749 5750 5752 5753 5755 5756 5757 5759 5760 5762 5763 5765 5766 5767 5768 5770 5771 5772 5773 5774 5776 5777 5778 5779 5779 5780 5781 5782 5782 5783 5784 5784
5723 5725 5726 5728 5728 5728 5729 5731 5732 5731 5733 5734 5736 5737 5738 5739 5740 5741 5741 5743 5744 5745 5746 5748 5749 5751 5752 5753 5755 5756 5757 5759 5760 5761 5763 5764 5765 5766 5767 5769 5769 5770 5771 5772 5772 5773 5774 5774 5775
5717 5718 5719 5720 5720 5721 5721 5723 5723 5724 5725 5727 5728 5729 5730 5731 5731 5732 5732 5734 5735 5736 5737 5738 5739 5740 5742 5743 5744 5746 5747 5748 5750 5752 5753 5754 5755 5756 5757 5758 5759 5760 5761 5762 5762 5763 5764 5764 5765
5710 5711 5712 5713 5712 5712 5713 5714 5716 5716 5717 5719 5720 5720 5721 5722 5722 5722 5723 5724 5725 5726 5727 5728 5729 5730 5731 5733 5734 5735 5737 5738 5740 5741 5743 5744 5745 5746 5747 5748 5749 5749 5750 5751 5752 5752 5753 5753 5754
5703 5704 5705 5705 5705 5705 5705 5707 5708 5709 5710 5711 5711 5711 5712 5712 5713 5713 5713 5714 5715 5716 5716 5717 5718 5719 5720 5722 5723 5724 5726 5727 5729 5730 5732 5733 5734 5735 5736 5737 5738 5738 5739 5739 5740 5741 5742 5742 5743
5697 5698 5698 5698 5698 5698 5698 5700 5702 5703 5702 5703 5703 5703 5702 5703 5703 5703 5703 5704 5704 5705 5706 5707 5707 5708 5709 5710 5712 5713 5714 5716 5718 5719 5721 5722 5723 5724 5725 5726 5726 5727 5727 5728 5729 5729 5730 5731 5731
5691 5691 5691 5691 5691 5691 5692 5691 5696 5695 5695 5695 5695 5694 5693 5693 5693 5693 5693 5694 5694 5695 5695 5696 5696 5697 5698 5699 5701 5702 5704 5706 5708 5709 5710 5711 5712 5713 5714 5714 5715 5715 5716 5716 5716 5717 5717 5718 5719
5684 5684 5684 5684 5684 5684 5685 5684 5688 5688 5687 5687 5686 5685 5684 5684 5684 5683 5684 5684 5684 5684 5684 5685 5686 5687 5688 5689 5690 5691 5693 5695 5696 5698 5699 5700 5701 5701 5702 5703 5703 5704 5704 5704 5704 5704 5704 5705 5706
5677 5677 5677 5677 5676 5677 5678 5677 5679 5680 5680 5679 5678 5677 5676 5675 5674 5674 5674 5674 5674 5673 5674 5675 5676 5677 5677 5678 5679 5680 5682 5683 5685 5687 5688 5689 5690 5690 5690 5691 5691 5691 5691 5692 5691 5691 5692 5692 5693
5671 5671 5670 5669 5669 5670 5671 5669 5672 5672 5671 5670 5669 5668 5667 5666 5665 5664 5664 5664 5664 5664 5665 5665 5666 5667 5667 5668 5668 5669 5671 5672 5674 5676 5676 5677 5678 5679 5679 5679 5679 5679 5679 5679 5678 5678 5679 5679 5679
5664 5664 5664 5663 5662 5663 5662 5662 5665 5664 5662 5661 5660 5660 5659 5658 5657 5655 5655 5655 5655 5655 5656 5656 5656 5657 5657 5658 5658 5659 5660 5661 5663 5664 5664 5665 5666 5667 5667 5667 5667 5667 5666 5666 5665 5665 5666 5666 5667
5657 5657 5657 5656 5654 5654 5654 5655 5657 5656 5654 5653 5653 5652 5651 5649 5648 5647 5646 5646 5646 5646 5646 5647 5647 5647 5647 5647 5648 5649 5650 5650 5651 5652 5653 5653 5654 5655 5655 5655 5655 5654 5653 5653 5653 5653 5653 5654 5654
5650 5650 5650 5648 5647 5646 5647 5648 5649 5648 5647 5646 5645 5644 5642 5641 5640 5639 5638 5637 5637 5637 5638 5638 5637 5638 5637 5637 5638 5638 5639 5639 5640 5640 5641 5641 5642 5642 5642 5642 5642 5642 5641 5640 5640 5641 5640 5640 5641
5644 5644 5642 5641 5640 5639 5639 5644 5642 5640 5639 5638 5637 5635 5634 5633 5632 5631 5630 5629 5629 5629 5628 5628 5628 5627 5627 5627 5627 5627 5627 5627 5627 5628 5628 5629 5629 5629 5629 5629 5629 5629 5628 5628 5627 5628 5628 5628 5629
5635 5635 5635 5635 5634 5632 5631 5637 5634 5633 5631 5630 5629 5627 5625 5625 5624 5623 5622 5621 5620 5620 5619 5618 5617 5617 5616 5616 5616 5615 5615 5615 5615 5615 5615 5616 5616 5616 5616 5616 5616 5616 5616 5615 5615 5615 5616 5617 5617